Wind_Speed
6 7 6 6 6 6 5 5 4 4 4 4 5 5 6 7 6 4 3 3 4 6 7 5 4 2 4 5 6 6 6 5 6 7 7 6 6 4 4 4 3 2 2
8 7 8 8 8 8 7 7 7 6 5 5 5 6 6 7 8 7 5 4 4 5 6 4 4 3 2 5 6 5 6 7 6 7 7 6 5 4 4 4 3 3 2
10 9 8 9 9 10 10 10 10 8 7 6 5 5 6 7 7 6 5 5 5 5 5 3 3 4 4 5 5 5 5 6 7 7 7 7 6 6 5 5 6 4 2
5 10 11 10 11 11 13 13 12 11 10 8 7 7 7 7 8 7 6 5 5 4 6 5 4 4 4 5 5 5 5 5 6 6 7 7 8 7 5 6 4 3 3
5 4 9 14 14 13 15 14 14 14 13 11 11 10 10 9 9 8 7 7 5 5 6 7 6 6 5 6 5 5 5 6 6 5 6 8 7 7 6 5 3 2 1
12 10 6 11 16 15 16 16 17 17 16 15 14 13 13 11 11 10 9 8 8 6 6 7 7 6 6 6 6 5 6 6 6 6 6 7 7 7 6 5 4 3 3
17 15 13 9 14 18 17 17 19 20 19 18 17 16 14 14 12 12 12 11 10 9 8 7 8 7 6 6 6 5 6 7 8 7 7 7 7 7 7 6 5 4 4
16 14 14 12 14 16 19 19 20 22 22 21 19 17 15 15 14 14 13 14 13 14 11 9 8 7 7 7 6 6 6 7 8 8 7 7 8 8 7 7 6 6 6
14 16 16 17 16 17 19 20 22 23 24 24 22 19 18 17 16 16 15 15 15 17 15 13 11 10 8 7 7 7 8 9 9 9 9 9 9 9 9 9 8 8 8
16 17 17 17 20 21 22 22 23 25 25 25 24 23 21 19 18 17 17 17 17 18 19 17 14 13 12 10 9 8 8 9 10 10 11 11 11 11 11 11 11 10 10
18 18 19 21 20 22 26 27 27 25 26 27 27 26 25 23 21 20 19 19 20 20 21 21 19 16 15 13 11 10 9 10 10 11 12 11 11 11 12 12 12 12 12
20 21 22 22 24 25 25 27 31 30 29 28 29 29 29 27 26 25 23 23 22 22 23 23 23 21 18 16 15 14 12 12 11 12 13 13 12 12 12 12 12 11 11
20 22 24 25 26 27 28 29 28 32 33 32 31 32 32 31 30 29 28 26 25 24 24 24 25 24 22 20 19 18 16 14 13 13 14 14 13 12 12 12 12 11 11
21 22 23 25 27 29 30 30 31 31 32 38 37 36 33 33 32 31 30 30 28 27 27 27 26 26 26 25 23 22 21 18 17 16 16 16 14 13 13 12 11 11 11
23 24 25 25 27 29 30 33 34 34 34 35 36 41 39 38 37 36 35 34 33 32 30 29 28 28 29 29 28 26 25 23 23 21 19 19 18 16 15 14 12 12 11
25 25 27 28 29 30 31 32 34 36 37 38 38 38 38 42 42 40 39 39 38 36 35 34 31 30 30 32 32 31 30 29 28 26 24 23 22 21 19 17 16 15 14
28 29 30 31 33 35 35 35 36 38 39 40 41 42 41 42 42 44 42 40 38 37 38 39 38 35 33 33 33 33 34 33 32 30 29 28 26 26 24 22 20 19 17
31 32 33 35 36 37 39 40 40 41 43 45 44 45 46 46 45 45 46 45 40 40 39 41 42 40 38 38 36 35 35 35 34 32 32 31 31 30 29 27 25 24 22
34 35 36 36 37 38 40 40 42 42 44 46 48 49 49 50 50 50 49 48 46 45 43 43 42 41 42 42 40 37 37 37 36 36 36 35 35 34 34 31 29 28 27
34 36 37 37 38 39 39 40 41 42 44 46 47 50 53 54 54 54 54 53 50 49 47 45 43 42 41 41 40 40 40 40 41 41 38 37 39 38 39 36 34 32 31
34 36 37 37 37 39 39 39 40 42 43 46 48 49 50 53 55 55 56 55 55 54 52 50 46 45 44 43 44 45 45 45 44 44 41 40 42 38 40 38 37 37 35
32 35 37 39 39 38 38 39 39 38 39 43 47 48 50 51 53 54 55 57 56 57 56 53 51 51 49 47 47 49 52 50 49 44 40 41 40 41 44 38 37 38 38
26 29 32 34 36 37 37 38 39 39 40 41 42 47 49 51 50 51 52 51 54 56 57 57 55 54 51 52 50 50 56 61 58 44 40 37 40 40 42 38 42 39 36
27 30 34 31 30 30 31 32 34 34 33 33 37 40 43 46 46 46 48 48 48 54 56 57 57 51 57 57 49 49 61 56 70 50 44 38 39 38 37 35 43 43 43
28 30 33 31 28 24 22 23 25 25 26 23 23 26 30 35 40 41 42 44 45 48 53 57 58 62 60 58 60 54 49 67 56 55 44 48 45 44 37 36 40 42 44
28 30 32 29 25 21 20 20 21 19 19 17 18 19 22 27 32 35 36 39 42 44 47 50 55 58 61 62 58 56 64 46 44 54 50 50 52 46 44 44 39 46 45
Wind_Direction
209 206 208 222 228 229 232 224 240 243 278 291 301 307 311 311 309 309 302 300 331 338 336 326 304 265 239 202 164 195 191 203 188 172 168 176 177 174 190 190 155 136 111
204 203 226 233 238 235 231 225 227 232 250 272 298 311 318 317 313 310 301 299 318 332 336 319 294 278 210 198 200 217 196 193 196 186 180 183 178 168 170 159 158 149 122
221 225 221 222 233 236 242 239 234 234 241 250 272 286 306 312 305 294 283 291 307 323 347 323 290 271 261 258 247 236 218 205 197 197 192 188 185 187 187 166 155 154 155
223 226 224 227 228 233 239 244 244 242 248 253 260 266 278 299 300 285 266 264 282 327 341 334 311 292 271 257 254 241 239 226 213 205 207 203 193 191 166 157 161 169 179
252 236 231 223 235 234 233 235 241 248 254 258 267 272 280 289 296 285 264 260 261 300 338 334 325 311 288 271 250 238 224 221 217 219 219 207 201 201 196 198 195 203 231
261 259 263 235 228 238 245 244 239 244 254 258 263 269 280 285 291 284 263 256 260 280 308 326 321 314 300 286 264 235 219 222 221 223 216 202 200 202 209 216 221 230 251
267 268 266 250 227 231 235 244 249 248 247 254 261 265 268 280 284 283 272 256 254 262 277 297 311 311 297 281 266 247 228 223 231 231 219 225 230 226 223 230 239 254 270
264 266 258 247 236 232 237 239 243 249 252 253 256 262 266 274 281 281 273 264 255 259 265 274 285 293 292 283 269 250 238 233 237 244 239 237 241 240 243 251 258 269 278
265 264 260 249 247 239 238 243 246 246 249 251 254 256 259 267 276 280 275 269 260 257 258 263 272 281 283 278 270 254 236 232 236 243 245 243 245 253 258 262 267 272 278
264 261 264 262 247 249 246 243 245 246 250 252 252 252 254 260 267 272 275 272 265 258 259 261 264 272 278 278 274 263 247 238 239 241 244 249 252 256 261 268 272 277 279
266 266 264 265 264 255 252 253 252 250 248 251 256 258 257 259 262 265 268 268 266 262 259 258 256 260 266 271 270 269 262 249 244 243 248 250 254 260 265 271 275 277 278
260 265 265 263 263 263 260 256 255 252 250 247 251 254 257 259 261 262 263 264 262 262 261 258 257 256 258 263 266 267 265 259 251 247 248 250 251 255 259 261 264 268 270
263 263 267 267 266 263 264 264 260 255 252 251 251 251 254 256 259 261 262 261 263 262 259 259 261 262 258 258 260 260 259 261 256 253 250 251 253 254 257 261 263 264 267
272 269 268 267 267 267 266 264 263 262 259 253 251 253 253 256 256 256 259 261 261 261 260 257 256 257 256 254 256 258 260 259 258 254 252 251 248 250 257 258 260 265 267
271 272 271 267 265 265 267 269 269 268 266 262 259 254 253 253 254 256 257 256 261 262 261 259 258 256 254 253 253 254 256 261 260 255 252 256 254 246 246 250 252 255 258
276 274 273 272 270 266 262 262 264 266 267 266 264 262 259 254 254 256 255 255 256 259 261 259 259 258 257 254 252 252 253 256 259 256 252 251 254 254 251 248 246 250 252
277 277 276 274 273 271 269 264 260 260 260 260 263 263 260 257 255 255 256 256 256 256 256 257 256 257 257 256 255 254 254 255 258 259 257 253 252 253 253 252 249 250 251
283 280 277 276 273 270 268 267 264 260 258 258 258 259 260 259 256 253 253 254 256 256 256 254 253 257 257 257 257 257 257 258 258 257 255 255 254 251 252 253 250 250 251
286 284 282 280 277 274 271 268 266 264 260 258 257 257 256 258 258 256 253 250 250 251 253 257 253 254 255 256 258 257 257 256 256 255 257 256 257 255 252 251 250 250 252
291 291 291 289 285 281 277 274 270 267 264 261 257 254 254 253 254 255 254 251 248 248 250 250 252 252 254 253 255 255 255 255 253 250 252 254 254 254 252 250 249 249 251
298 296 294 290 286 283 281 277 272 270 267 265 263 259 254 253 254 254 255 254 250 247 247 250 250 249 251 253 256 255 257 255 252 251 251 254 252 253 256 252 249 249 251
304 305 300 293 288 285 285 283 281 279 275 270 265 261 258 255 252 252 251 252 251 250 244 247 249 250 250 251 254 259 257 254 251 249 248 255 255 250 252 248 253 252 251
312 315 316 302 292 286 283 283 283 282 280 276 271 262 256 253 253 253 253 251 250 250 250 243 248 248 253 252 252 258 260 262 252 248 251 254 256 248 259 246 244 248 254
325 324 329 322 310 298 290 286 285 285 287 284 274 265 257 252 252 253 252 253 252 250 251 250 241 249 248 250 251 265 250 259 261 254 251 251 258 252 263 256 262 242 250
330 335 333 331 327 323 317 310 305 306 299 296 288 280 266 254 252 252 252 252 252 251 251 252 250 247 246 250 250 255 271 257 254 261 268 258 251 262 253 259 249 245 248
338 341 341 338 333 328 326 321 313 307 299 302 298 289 276 263 258 257 256 256 256 257 256 254 254 253 249 249 253 255 258 265 264 270 275 263 259 255 262 250 250 252 239
Height
3166 3167 3168 3169 3170 3171 3171 3170 3170 3170 3170 3170 3169 3169 3168 3167 3166 3166 3165 3165 3164 3164 3163 3162 3161 3160 3160 3160 3160 3159 3160 3161 3161 3160 3161 3161 3162 3162 3163 3163 3163 3164 3164
3165 3166 3168 3169 3170 3170 3171 3171 3170 3170 3171 3170 3170 3169 3169 3168 3167 3166 3166 3165 3165 3164 3164 3163 3162 3161 3160 3160 3160 3160 3160 3161 3161 3161 3162 3162 3162 3163 3163 3164 3164 3164 3164
3165 3166 3167 3168 3169 3170 3170 3171 3170 3170 3171 3170 3170 3170 3169 3168 3167 3167 3166 3166 3166 3165 3164 3163 3162 3162 3161 3161 3161 3161 3161 3161 3161 3162 3161 3162 3163 3163 3163 3163 3164 3164 3164
3164 3165 3166 3167 3168 3169 3169 3170 3171 3170 3170 3170 3169 3169 3169 3168 3167 3167 3166 3166 3166 3166 3165 3164 3163 3162 3162 3161 3161 3161 3162 3162 3162 3162 3162 3162 3162 3163 3164 3164 3164 3164 3164
3163 3164 3165 3166 3167 3167 3168 3169 3170 3170 3170 3170 3170 3169 3169 3168 3168 3167 3167 3167 3167 3166 3166 3165 3164 3163 3162 3161 3161 3161 3161 3162 3162 3162 3162 3162 3163 3163 3163 3164 3164 3165 3165
3161 3162 3163 3164 3165 3167 3167 3168 3168 3168 3169 3169 3169 3169 3168 3168 3167 3167 3167 3167 3167 3167 3166 3165 3164 3163 3162 3161 3161 3161 3161 3161 3161 3162 3162 3163 3163 3163 3164 3164 3164 3164 3164
3159 3160 3161 3162 3163 3164 3165 3166 3167 3167 3167 3167 3168 3168 3168 3167 3167 3167 3166 3166 3166 3166 3166 3165 3164 3163 3162 3161 3161 3161 3161 3161 3161 3162 3162 3163 3163 3164 3164 3164 3164 3164 3164
3158 3158 3159 3160 3161 3162 3163 3163 3164 3165 3166 3166 3166 3166 3167 3167 3166 3166 3165 3165 3165 3165 3165 3164 3163 3162 3162 3161 3160 3161 3161 3161 3161 3162 3162 3163 3163 3163 3164 3164 3163 3163 3163
3156 3156 3156 3157 3158 3159 3160 3161 3161 3162 3162 3162 3163 3164 3164 3165 3165 3164 3164 3163 3164 3164 3163 3163 3163 3162 3161 3160 3160 3160 3160 3160 3161 3161 3161 3162 3162 3162 3163 3163 3163 3163 3162
3153 3154 3154 3155 3156 3156 3157 3157 3157 3158 3159 3159 3160 3160 3161 3161 3162 3162 3162 3162 3162 3162 3162 3162 3162 3162 3161 3160 3159 3159 3159 3159 3159 3160 3160 3160 3160 3161 3161 3161 3161 3161 3161
3150 3151 3152 3152 3153 3153 3154 3154 3154 3154 3155 3156 3156 3157 3157 3158 3158 3158 3159 3159 3159 3159 3159 3159 3159 3160 3159 3159 3158 3158 3157 3157 3157 3157 3157 3157 3158 3159 3159 3159 3159 3159 3159
3148 3147 3147 3148 3148 3148 3149 3149 3150 3150 3151 3151 3152 3152 3153 3154 3154 3155 3155 3155 3155 3156 3156 3156 3156 3157 3157 3157 3157 3156 3156 3156 3156 3155 3155 3155 3155 3155 3156 3156 3156 3156 3156
3145 3145 3144 3144 3143 3143 3143 3144 3145 3145 3146 3147 3147 3147 3148 3149 3150 3150 3150 3151 3151 3151 3152 3152 3153 3153 3154 3154 3154 3154 3153 3154 3154 3154 3153 3153 3153 3153 3153 3153 3153 3153 3153
3140 3140 3140 3140 3139 3138 3138 3138 3138 3139 3140 3141 3141 3142 3143 3143 3144 3144 3145 3146 3146 3147 3147 3147 3148 3149 3149 3150 3150 3150 3150 3150 3151 3151 3151 3150 3150 3150 3150 3150 3150 3150 3150
3136 3135 3135 3135 3134 3134 3133 3133 3133 3133 3133 3134 3134 3136 3136 3136 3137 3138 3139 3140 3141 3141 3143 3143 3143 3143 3143 3144 3145 3145 3146 3146 3147 3147 3147 3148 3147 3146 3146 3147 3146 3146 3146
3130 3130 3129 3128 3128 3128 3127 3127 3126 3126 3126 3125 3126 3128 3128 3129 3130 3130 3131 3133 3134 3136 3137 3137 3137 3137 3138 3138 3138 3139 3140 3140 3141 3142 3143 3142 3143 3143 3143 3143 3143 3142 3142
3124 3124 3123 3122 3121 3120 3119 3119 3118 3118 3117 3117 3117 3118 3119 3119 3121 3123 3123 3124 3126 3128 3129 3130 3131 3131 3131 3131 3133 3133 3134 3134 3134 3136 3137 3138 3138 3139 3138 3139 3139 3138 3138
3118 3117 3116 3114 3113 3112 3110 3109 3108 3109 3108 3107 3108 3108 3108 3109 3110 3112 3113 3115 3119 3119 3120 3120 3122 3123 3124 3124 3125 3127 3127 3127 3128 3129 3129 3130 3132 3132 3133 3133 3133 3133 3133
3110 3108 3106 3105 3103 3102 3100 3099 3098 3098 3097 3098 3098 3098 3098 3099 3099 3100 3102 3104 3108 3109 3110 3112 3113 3114 3115 3116 3118 3118 3118 3119 3120 3121 3121 3122 3123 3124 3126 3127 3127 3127 3127
3101 3099 3096 3095 3093 3091 3089 3088 3087 3087 3086 3085 3085 3085 3086 3086 3087 3088 3089 3092 3096 3099 3100 3101 3103 3106 3106 3107 3108 3108 3109 3109 3110 3110 3112 3113 3114 3115 3117 3119 3120 3120 3121
3095 3092 3088 3085 3083 3080 3078 3077 3076 3074 3075 3074 3074 3074 3075 3075 3077 3078 3078 3080 3083 3086 3089 3092 3094 3094 3096 3099 3099 3098 3098 3099 3098 3100 3102 3104 3105 3106 3107 3109 3111 3113 3113
3088 3084 3080 3076 3073 3070 3068 3066 3064 3064 3063 3061 3061 3061 3063 3063 3064 3065 3066 3067 3070 3073 3077 3081 3083 3084 3085 3087 3088 3090 3086 3088 3085 3088 3091 3093 3095 3095 3097 3099 3100 3103 3105
3083 3078 3072 3067 3062 3060 3059 3056 3054 3052 3050 3049 3049 3048 3050 3051 3052 3053 3055 3056 3057 3060 3062 3067 3071 3073 3075 3077 3078 3080 3077 3071 3075 3077 3080 3082 3082 3084 3087 3089 3090 3091 3094
3078 3072 3065 3059 3054 3050 3048 3046 3043 3041 3039 3036 3034 3035 3037 3039 3041 3042 3044 3046 3047 3048 3050 3053 3057 3060 3063 3064 3067 3067 3066 3064 3061 3060 3069 3072 3073 3073 3075 3076 3078 3081 3083
3073 3068 3061 3055 3049 3044 3040 3037 3034 3032 3031 3029 3027 3026 3028 3029 3030 3032 3034 3036 3036 3038 3039 3041 3043 3046 3050 3052 3055 3056 3053 3056 3051 3045 3050 3057 3061 3064 3066 3068 3070 3072 3075
3069 3064 3058 3052 3046 3041 3036 3033 3032 3030 3027 3025 3023 3022 3023 3023 3024 3025 3027 3028 3029 3029 3030 3032 3033 3035 3038 3040 3043 3046 3044 3038 3044 3045 3042 3045 3048 3051 3054 3057 3058 3060 3057